Location: Palomar Mountain Lodge
(33.3110°N, 116.8495°W)
Time: 02:27:14
(UTC-07:00)

USA 229 DEB - Pass Details

Date: 12 July 2018
Orbit: 1024 x 1189 km, 63.4° (Epoch: 17 September)

Event Time Altitude Azimuth Distance (km) Brightness Sun altitude
Rises 22:32:47 0° 330° (NNW) 3,974 8.0 -25.5°
Reaches altitude 10° 22:35:27 10° 332° (NNW) 3,033 7.1 -25.8°
Maximum altitude 22:42:46 80° 60° (ENE) 1,185 3.8 -26.7°
Enters shadow 22:44:24 58° 134° (SE) 1,348 3.8 -26.9°
